{"data":{"norad_id":63085,"intl_designator":"2025-037J","name":"STARLINK-32505","alt_names":[],"object_type":"PAYLOAD","status":"ACTIVE","operator":null,"country":"US","launch_date":"2025-02-23","launch_site_code":"AFWTR","launch_vehicle":null,"mission":null,"orbit_class":"UNKNOWN","rcs_meters":null,"size_class":null,"mass_kg":null,"dimensions":null,"purposes":["comms"],"wikipedia_slug":null,"has_3d_model":false,"image_url":null,"decayed_at":null,"tle_current":{"epoch":"2026-09-21T14:23:51.767808Z","epoch_age_seconds":67269,"freshness":"FRESH","line1":"1 63085U 25037J   26264.59990472  .00012584  00000+0  43030-3 0  9996","line2":"2 63085  70.0007 218.2584 0003318 268.5714  91.5081 15.30415525 87950","mean_motion":15.30415525,"eccentricity":0.0003318,"inclination_deg":70.0007,"raan_deg":218.2584,"arg_perigee_deg":268.5714,"mean_anomaly_deg":91.5081,"bstar":0.0004303,"rev_number":8795,"period_min":94.092093060805,"perigee_km":472.29789741809,"apogee_km":476.8453548624,"semimajor_km":6852.7086261402,"source":"CELESTRAK","updated_at":"2026-09-22T09:00:49.758826Z"}}}